Flag for Italy Weather past 2 weeks in Cagliari, Italy

Now
91 °F

Sunny.


Feels Like: 91 °F
Forecast: 71 / 92 °F
Wind: 10 mph from Southeast

Location: Cagliari / Elmas

Current Time: Aug 5, 2015 at 2:47:13 PM

Latest Report: Aug 5, 2015 at 1:50 PM


Visibility: 10 mi

Pressure: 29.92 "Hg

Humidity: 34%

Dew point: 59 °F

Location of CagliariLocation

Historic Weather in Cagliari — Graph

°F

Cagliari temperature yesterday

Maximum temperature yesterday: 90 °F (at 11:20 AM)
Minimum temperature yesterday: 68 °F (at 6:20 AM)
Average temperature yesterday: 80 °F

Past Weeks' High & Low Weather Summary

 TemperatureHumidityPressure
High99 °F (Jul 29, 2:50 PM)94% (Jul 23, 3:20 AM)30.01 "Hg (Jul 23, 3:20 AM)
Low68 °F (Jul 27, 5:50 AM)28% (Aug 1, 7:50 PM)29.77 "Hg (Jul 30, 12:50 PM)
Average82 °F66%29.88 "Hg
* Reported Jul 21 1:20 PM — Aug 5 1:50 PM, Cagliari, Weather by CustomWeather, © 2015

Note: Actual official high and low records may vary slightly from our data, if they occured in-between our weather recording intervals... More about our weather records

Advertising

Cagliari weather history for previous 24 hours

 ConditionsComfort  
Time TempWeatherWind HumidityBarometerVisibility
1:50 PM
Wed, Aug 5
91 °FSunny.10 mph34%29.92 "Hg10 mi
1:20 PM91 °FPassing clouds.8 mph34%29.95 "HgN/A
12:50 PM91 °FPassing clouds.7 mph38%29.95 "HgN/A
12:20 PM90 °FPassing clouds.7 mph43%29.95 "HgN/A
11:50 AM88 °FSunny.9 mph46%29.95 "Hg10 mi
11:20 AM88 °FSunny.3 mph46%29.95 "Hg10 mi
10:50 AM86 °FPassing clouds.5 mph55%29.95 "HgN/A
10:20 AM84 °FPassing clouds.6 mph62%29.95 "HgN/A
9:50 AM82 °FPassing clouds.5 mph62%29.95 "HgN/A
8:50 AM75 °FSunny.7 mph78%29.98 "Hg10 mi
8:20 AM73 °FSunny.8 mph83%29.98 "Hg10 mi
7:50 AM72 °FSunny.8 mph83%29.98 "Hg10 mi
7:20 AM72 °FClear.10 mph83%29.95 "Hg10 mi
6:50 AM70 °FClear.8 mph88%29.95 "Hg10 mi
6:20 AM70 °FClear.7 mph88%29.95 "Hg10 mi
5:50 AM72 °FClear.9 mph88%29.95 "Hg10 mi
4:50 AM72 °FClear.6 mph88%29.95 "Hg10 mi
4:20 AM72 °FClear.7 mph88%29.95 "Hg10 mi
3:50 AM72 °FClear.8 mph83%29.95 "Hg10 mi
3:20 AM73 °FClear.8 mph83%29.95 "Hg10 mi
2:50 AM73 °FClear.8 mph83%29.95 "Hg10 mi
2:20 AM73 °FClear.7 mph83%29.95 "Hg10 mi
1:50 AM75 °FClear.8 mph78%29.95 "Hg10 mi
1:20 AM75 °FClear.9 mph83%29.95 "Hg10 mi
12:50 AM77 °FClear.9 mph79%29.95 "Hg10 mi
12:20 AM77 °FClear.5 mph79%29.95 "Hg10 mi
11:50 PM
Tue, Aug 4
77 °FClear.8 mph74%29.95 "Hg10 mi
11:20 PM79 °FClear.8 mph70%29.95 "Hg10 mi
10:50 PM79 °FClear.8 mph70%29.95 "Hg10 mi
10:20 PM79 °FClear.8 mph70%29.95 "Hg10 mi
9:50 PM81 °FClear.9 mph62%29.95 "Hg10 mi
9:20 PM81 °FSunny.13 mph62%29.95 "Hg10 mi
8:50 PM82 °FSunny.10 mph58%29.95 "Hg10 mi
8:20 PM84 °FPassing clouds.6 mph62%29.95 "HgN/A
7:50 PM84 °FSunny.7 mph58%29.92 "Hg10 mi
7:20 PM84 °FSunny.10 mph62%29.92 "Hg10 mi
6:50 PM84 °FSunny.12 mph66%29.92 "Hg10 mi
6:20 PM86 °FSunny.14 mph59%29.92 "Hg10 mi
5:50 PM88 °FSunny.14 mph52%29.92 "Hg10 mi
5:20 PM88 °FSunny.12 mph55%29.95 "Hg10 mi
4:50 PM86 °FSunny.14 mph62%29.92 "Hg10 mi
4:20 PM86 °FSunny.14 mph62%29.92 "Hg10 mi
3:50 PM88 °FSunny.15 mph55%29.92 "Hg10 mi
3:20 PM88 °FSunny.17 mph52%29.92 "Hg10 mi
2:50 PM88 °FSunny.15 mph55%29.92 "Hg10 mi
2:20 PM88 °FSunny.13 mph55%29.95 "Hg10 mi
Weather by CustomWeather, © 2015

See weather overviewHow to use our weather pages